Regional Weather Roundup
Issued by NWS Green Bay, WI

Home | Current Version | Previous Version | Text Only | Print | Product List | Glossary On
Versions: 1 2 3 4 5 6 7 8 9 10 11 12 13 14 15 16 17 18 19 20 21 22 23 24 25 26 27 28 29 30 31 32 33 34 35 36 37 38 39 40 41 42 43 44 45 46 47 48 49 50
747
ASUS43 KGRB 290911
RWRGRB

NORTH-CENTRAL AND NORTHEAST WISCONSIN REGIONAL WEATHER ROUNDUP
NATIONAL WEATHER SERVICE GREEN BAY WI
400 AM CDT WED MAR 29 2017

WIZ005-009-010>012-018-019-291000-
NORTH CENTRAL WISCONSIN

CITY           SKY/WX    TMP DP  RH WIND       PRES   REMARKS
IRONWOOD       CLEAR     32  27  81 E7        30.27R
MANITOWISH WTR CLEAR     27  27  99 CALM      30.25R
ARBOR VITAE    CLEAR     32  28  86 CALM      30.25R
EAGLE RIVER    CLEAR     27  26  99 CALM      30.25S
LAND O LAKES   CLEAR     26  26  99 CALM      30.28R
RHINELANDER    CLEAR     31  27  85 CALM      30.25S
PHILLIPS       CLOUDY    30  27  86 CALM      30.24R
ANTIGO         CLEAR     31  28  88 NE6       30.26R
TOMAHAWK       CLEAR     26  23  91 CALM      30.27R
MERRILL        CLEAR     28  27  96 CALM      30.26R
$$

WIZ013-073-291000-
NORTHEAST WISCONSIN

CITY           SKY/WX    TMP DP  RH WIND       PRES   REMARKS
IRON MOUNTAIN  CLEAR     26  21  81 CALM      30.26F
MARINETTE        N/A    N/A N/A N/A MISG        N/A
OCONTO         CLEAR     30  29  96 NE5       30.27S
$$

WIZ017-030-035>037-045-291000-
CENTRAL WISCONSIN

CITY           SKY/WX    TMP DP  RH WIND       PRES   REMARKS
MEDFORD        CLOUDY    35  29  76 E3        30.23R
WAUSAU         CLOUDY    32  28  85 CALM      30.24R
MOSINEE        CLOUDY    36  30  80 NE5       30.25S
MARSHFIELD     CLOUDY    35  28  75 NE6       30.23R
WISC RAPIDS    CLOUDY    33  30  88 CALM      30.25S
STEVENS POINT  CLOUDY    28  27  98 CALM      30.25S
WAUPACA        CLEAR     32  30  93 CALM      30.26S
SHAWANO        CLEAR     35  32  90 CALM      30.27S
CLINTONVILLE   CLEAR     34  30  86 NE6       30.26S
WAUTOMA        CLOUDY    31  29  92 CALM      30.25S
$$

WIZ038-039-048-051-291000-
FOX VALLEY

CITY           SKY/WX    TMP DP  RH WIND       PRES   REMARKS
NWS GREEN BAY  CLEAR     33  32  96 NE7       30.27R
APPLETON       CLEAR     36  30  80 NE7       30.24R
OSHKOSH        CLEAR     34  29  82 NE7       30.24S
FOND DU LAC    CLEAR     32  28  85 CALM      30.24S
$$

WIZ022-050-052-291000-
EAST CENTRAL WISCONSIN

CITY           SKY/WX    TMP DP  RH WIND       PRES   REMARKS
EPHRAIM        FAIR      33  29  86 N5        30.27S
WASHINGTON ISL FAIR      32  29  90 NE7       30.28S
STURGEON BAY   CLEAR     35  31  85 NE5       30.24S
MANITOWOC      CLEAR     34  31  88 VRB3      30.27R
SHEBOYGAN      CLEAR     32  30  92 NE8       30.24S
$$

LMZ563-521-522-541>543-291000-
LAKESHORE

STATION/POSITION TIME  TEMP    WIND        PRES    VSBY  WAVE
                       AIR SEA DIR/SP/G                  HT/PER
                 (UTC) (F)     (DEG/KT/KT) (MB)    (MI)  (FT/S)
SHEBOYGAN LKSHOR 0900   36      10/ 13/ 14 1024.8R
KEWAUNEE LKSHORE 0842   35      20/  3/  7 1024.4S
NORTHPORT PIER   0840   35     350/  1/  5 1025.4S
SISTER BAY LKSHO 0806   37      40/  6/  9   N/A
CHAMBERS ISLAND  0840   33      30/  4/  6 1025.1S
MENOMINEE LKSHOR 0842   34      10/ 11/ 13 1024.4S
$$




USA.gov is the U.S. government's official web portal to all federal, state and local government web resources and services.